Location: Newark
(43.0117°N, 7.5572°W)
Time: 21:02:38
(UTC+00:00)

X-37B - Pass Details

Date: 04 October 2020
Orbit: 382 x 392 km, 45.0° (Epoch: 15 October)

Event Time Altitude Azimuth Distance (km) Brightness Sun altitude
Rises 20:20:48 0° 261° (W) 2,260 5.4 -25.3°
Reaches altitude 10° 20:22:53 10° 263° (W) 1,406 4.2 -25.6°
Enters shadow 20:24:09 22° 267° (W) 902 3.1 -25.8°
